Hourly Data Report for June 01, 2021

GAMETI
NORTHWEST TERRITORIES
Current Station Operator: ECCC - MSC

64°06'42.078" N
117°19'40.086" W
221.00 m
2203359
71165
WYH

Download Data

Hourly Data (June 2021)
Hourly Data Report for June 1, 2021
TIME
LST
Temp Definition
°C
Dew Point Definition
°C
Rel Hum Definition
%
Precip. Amount Definition
mm

Wind Dir Definition
10's deg

Wind Spd Definition
km/h
Visibility Definition
km
Stn Press Definition
kPa
Hmdx Definition


Wind Chill Definition


Weather Definition


00:00 10.2 4.7 69 LegendMM 33 8   98.03     LegendNANA
01:00 7.6 3.9 77 LegendMM 33 5   98.02     LegendNANA
02:00 6.1 4.0 86 LegendMM 35 5   98.00     LegendNANA
03:00 5.1 3.7 91 LegendMM 33 3   97.97     LegendNANA
04:00 6.0 3.7 85 LegendMM 32 3   97.91     LegendNANA
05:00 6.5 4.0 84 LegendMM 33 3   97.86     LegendNANA
06:00 7.2 4.2 81 LegendMM 35 5   97.80     LegendNANA
07:00 7.8 4.4 79 LegendMM 32 4   97.78     LegendNANA
08:00 9.0 4.7 74 LegendMM 34 5   97.74     LegendNANA
09:00 10.7 5.2 69 LegendMM 31 4   97.71     LegendNANA
10:00 10.6 8.1 85 LegendMM 32 3   97.68     LegendNANA
11:00 12.3 7.9 75 LegendMM 0 1   97.61     LegendNANA
12:00 12.9 7.9 72 LegendMM 28 6   97.63     LegendNANA
13:00 14.3 7.4 64 LegendMM 9 2   97.62     LegendNANA
14:00 14.8 9.0 68 LegendMM 21 2   97.64     LegendNANA
15:00 14.5 9.5 72 LegendMM 36 3   97.65     LegendNANA
16:00 15.4 9.5 68 LegendMM 4 5   97.64     LegendNANA
17:00 14.1 10.0 76 LegendMM 1 3   97.66     LegendNANA
18:00 13.4 9.9 79 LegendMM 34 5   97.65     LegendNANA
19:00 12.4 9.7 84 LegendMM 31 5   97.64     LegendNANA
20:00 10.5 10.0 97 LegendMM 32 8   97.67     LegendNANA
21:00 8.8 8.7 99 LegendMM 1 7   97.67     LegendNANA
22:00 7.9 7.5 98 LegendMM 34 5   97.67     LegendNANA
23:00 7.2 7.0 98 LegendMM 32 9   97.70     LegendNANA

Notes on Data Quality.

Legend

  • E = Estimated
  • M = Missing
  • NA = Not Available*
  • [empty] = Indicates an unobserved value
Date modified: